| time (UTC) | temp F | wind direction | speed knots | gust knots | rain 1hr in | rain 24hr in | rain mn in | humidity % | barometer mb |
| 20260504235313 | 69 | 76 | 6.1 | 12.2 | 0.01 | 0.90 | 0.08 | 89 | 1014.2 |
| 20260504234312 | 69 | 28 | 5.2 | 11.3 | 0.01 | 0.90 | 0.08 | 89 | 1014.1 |
| 20260504233812 | 69 | 89 | 4.3 | 10.4 | 0.01 | 0.90 | 0.08 | 89 | 1014.1 |
| 20260504233314 | 69 | 18 | 5.2 | 11.3 | 0.01 | 0.90 | 0.08 | 89 | 1014.1 |
| 20260504232813 | 69 | 42 | 4.3 | 10.4 | 0.01 | 0.90 | 0.08 | 89 | 1013.9 |
| 20260504232311 | 69 | 39 | 6.1 | 14.8 | 0.01 | 0.90 | 0.08 | 89 | 1013.7 |
| 20260504231812 | 69 | 19 | 5.2 | 17.4 | 0.02 | 0.90 | 0.08 | 89 | 1013.6 |
| 20260504231312 | 69 | 53 | 7.8 | 18.2 | 0.03 | 0.90 | 0.08 | 88 | 1013.4 |
| 20260504230813 | 69 | 45 | 8.7 | 14.8 | 0.04 | 0.89 | 0.07 | 87 | 1013.3 |
| 20260504230312 | 69 | 55 | 7.0 | 17.4 | 0.06 | 0.89 | 0.07 | 87 | 1013.4 |
| 20260504225812 | 69 | 43 | 5.2 | 11.3 | 0.07 | 0.89 | 0.07 | 88 | 1013.6 |
| 20260504225312 | 69 | 75 | 2.6 | 13.0 | 0.07 | 0.89 | 0.07 | 88 | 1013.8 |
| 20260504224812 | 69 | 85 | 4.3 | 12.2 | 0.07 | 0.89 | 0.07 | 88 | 1013.8 |
| 20260504224312 | 69 | 78 | 2.6 | 10.4 | 0.07 | 0.89 | 0.07 | 88 | 1013.8 |
| 20260504223812 | 69 | 31 | 1.7 | 11.3 | 0.07 | 0.89 | 0.07 | 89 | 1013.6 |
| 20260504223313 | 69 | 80 | 3.5 | 10.4 | 0.07 | 0.89 | 0.07 | 88 | 1013.6 |
| 20260504222812 | 69 | 87 | 4.3 | 7.8 | 0.07 | 0.89 | 0.07 | 88 | 1013.5 |
| 20260504222312 | 69 | 48 | 3.5 | 10.4 | 0.07 | 0.89 | 0.07 | 88 | 1013.5 |
| 20260504221812 | 70 | 47 | 2.6 | 10.4 | 0.06 | 0.88 | 0.06 | 87 | 1013.5 |
| 20260504221313 | 70 | 47 | 2.6 | 7.8 | 0.05 | 0.87 | 0.05 | 86 | 1013.5 |
| 20260504220811 | 70 | 88 | 2.6 | 7.8 | 0.03 | 0.85 | 0.03 | 85 | 1013.7 |
| 20260504220311 | 71 | 112 | 3.5 | 7.8 | 0.01 | 0.83 | 0.01 | 84 | 1013.4 |
| 20260504215812 | 71 | 56 | 3.5 | 8.7 | 0.00 | 0.82 | 0.00 | 83 | 1013.5 |
| 20260504215312 | 71 | 58 | 2.6 | 8.7 | 0.00 | 0.82 | 0.00 | 81 | 1013.7 |
| 20260504214812 | 71 | 88 | 4.3 | 7.8 | 0.00 | 0.82 | 0.00 | 81 | 1013.8 |
| 20260504214312 | 71 | 31 | 1.7 | 7.8 | 0.00 | 0.82 | 0.00 | 81 | 1013.6 |
| 20260504213312 | 71 | 50 | 3.5 | 11.3 | 0.00 | 0.82 | 0.00 | 81 | 1013.3 |
| 20260504212813 | 71 | 342 | 4.3 | 17.4 | 0.00 | 0.82 | 0.00 | 82 | 1013.1 |
| 20260504212312 | 71 | 40 | 4.3 | 13.0 | 0.00 | 0.82 | 0.00 | 82 | 1013.1 |
| 20260504211812 | 71 | 59 | 3.5 | 11.3 | 0.00 | 0.82 | 0.00 | 82 | 1013.1 |
| 20260504211312 | 71 | 55 | 5.2 | 10.4 | 0.00 | 0.82 | 0.00 | 82 | 1013.1 |
| 20260504210812 | 71 | 71 | 4.3 | 10.4 | 0.00 | 0.82 | 0.00 | 82 | 1012.9 |
| 20260504210312 | 71 | 70 | 5.2 | 12.2 | 0.00 | 0.82 | 0.00 | 82 | 1012.9 |
| 20260504205812 | 71 | 73 | 3.5 | 8.7 | 0.00 | 0.82 | 0.00 | 82 | 1013.1 |
| 20260504205312 | 71 | 62 | 5.2 | 13.0 | 0.00 | 0.82 | 0.00 | 82 | 1013.2 |
| 20260504204812 | 71 | 20 | 2.6 | 10.4 | 0.00 | 0.82 | 0.00 | 82 | 1013.2 |
| 20260504204312 | 71 | 84 | 5.2 | 11.3 | 0.00 | 0.82 | 0.00 | 83 | 1013.2 |
| 20260504203812 | 71 | 60 | 4.3 | 10.4 | 0.00 | 0.82 | 0.00 | 83 | 1013.3 |
| 20260504203312 | 72 | 58 | 5.2 | 12.2 | 0.00 | 0.82 | 0.00 | 83 | 1013.2 |
| 20260504202813 | 72 | 38 | 5.2 | 12.2 | 0.00 | 0.82 | 0.00 | 83 | 1013.2 |
| 20260504202312 | 72 | 51 | 4.3 | 12.2 | 0.00 | 0.82 | 0.00 | 83 | 1013.2 |
| 20260504201811 | 72 | 37 | 5.2 | 10.4 | 0.00 | 0.82 | 0.00 | 82 | 1013.2 |
| 20260504201312 | 72 | 28 | 7.0 | 13.0 | 0.00 | 0.82 | 0.00 | 83 | 1013.1 |
| 20260504200812 | 72 | 35 | 4.3 | 11.3 | 0.00 | 0.82 | 0.00 | 83 | 1013.0 |
| 20260504200312 | 72 | 50 | 4.3 | 12.2 | 0.00 | 0.82 | 0.00 | 83 | 1012.9 |
| 20260504195311 | 72 | 51 | 4.3 | 13.0 | 0.00 | 0.82 | 0.00 | 83 | 1012.9 |
| 20260504194812 | 72 | 37 | 5.2 | 10.4 | 0.00 | 0.82 | 0.00 | 83 | 1012.9 |
| 20260504194312 | 72 | 45 | 5.2 | 10.4 | 0.00 | 0.82 | 0.00 | 83 | 1013.0 |
| 20260504193812 | 72 | 54 | 5.2 | 13.0 | 0.00 | 0.82 | 0.00 | 83 | 1013.0 |
| 20260504193311 | 72 | 59 | 5.2 | 11.3 | 0.00 | 0.82 | 0.00 | 83 | 1013.0 |
| 20260504192811 | 72 | 49 | 5.2 | 10.4 | 0.00 | 0.82 | 0.00 | 83 | 1013.0 |
| 20260504192311 | 72 | 69 | 6.1 | 12.2 | 0.00 | 0.82 | 0.00 | 83 | 1013.0 |
| 20260504191813 | 72 | 40 | 6.1 | 12.2 | 0.00 | 0.82 | 0.00 | 84 | 1013.1 |
| 20260504191312 | 72 | 53 | 6.1 | 17.4 | 0.00 | 0.82 | 0.00 | 84 | 1013.1 |
| 20260504190811 | 72 | 55 | 6.1 | 12.2 | 0.00 | 0.82 | 0.00 | 84 | 1013.1 |
| 20260504190312 | 72 | 57 | 6.1 | 12.2 | 0.00 | 0.82 | 0.00 | 84 | 1013.0 |
| 20260504185812 | 72 | 96 | 5.2 | 12.2 | 0.00 | 0.82 | 0.00 | 84 | 1012.9 |
| 20260504185312 | 72 | 34 | 6.1 | 13.9 | 0.00 | 0.82 | 0.00 | 84 | 1013.0 |
| 20260504184812 | 72 | 68 | 6.1 | 12.2 | 0.00 | 0.82 | 0.00 | 85 | 1013.1 |
| 20260504184311 | 72 | 54 | 5.2 | 11.3 | 0.00 | 0.82 | 0.00 | 84 | 1013.2 |
| 20260504183811 | 72 | 51 | 6.1 | 13.9 | 0.00 | 0.82 | 0.00 | 84 | 1013.2 |
| 20260504183311 | 72 | 58 | 6.1 | 12.2 | 0.00 | 0.82 | 0.00 | 84 | 1013.3 |
| 20260504182812 | 72 | 58 | 5.2 | 17.4 | 0.00 | 0.82 | 0.00 | 84 | 1013.3 |
| 20260504182311 | 72 | 50 | 6.1 | 13.0 | 0.00 | 0.82 | 0.00 | 84 | 1013.3 |
| 20260504181812 | 72 | 35 | 5.2 | 14.8 | 0.00 | 0.82 | 0.00 | 84 | 1013.3 |
| 20260504181311 | 72 | 71 | 6.1 | 11.3 | 0.00 | 0.82 | 0.00 | 84 | 1013.5 |
| 20260504175811 | 73 | 54 | 4.3 | 8.7 | 0.00 | 0.82 | 0.00 | 84 | 1014.0 |
| 20260504175312 | 73 | 35 | 5.2 | 11.3 | 0.00 | 0.82 | 0.00 | 84 | 1014.1 |
| 20260504174812 | 73 | 54 | 6.1 | 12.2 | 0.00 | 0.82 | 0.00 | 84 | 1014.3 |
| 20260504174311 | 73 | 69 | 5.2 | 10.4 | 0.00 | 0.82 | 0.00 | 84 | 1014.2 |
| 20260504173811 | 73 | 52 | 5.2 | 10.4 | 0.00 | 0.82 | 0.00 | 84 | 1014.2 |
| 20260504173312 | 73 | 52 | 4.3 | 12.2 | 0.00 | 0.82 | 0.00 | 84 | 1014.1 |
| 20260504172812 | 73 | 42 | 4.3 | 11.3 | 0.00 | 0.82 | 0.00 | 84 | 1014.1 |
| 20260504171812 | 73 | 76 | 4.3 | 10.4 | 0.00 | 0.82 | 0.00 | 84 | 1014.4 |
| 20260504171312 | 72 | 68 | 5.2 | 12.2 | 0.00 | 0.82 | 0.00 | 84 | 1014.5 |
| 20260504170811 | 72 | 54 | 3.5 | 15.6 | 0.00 | 0.82 | 0.00 | 84 | 1014.6 |
| 20260504170312 | 73 | 72 | 1.7 | 7.8 | 0.00 | 0.82 | 0.00 | 84 | 1014.7 |
| 20260504160311 | 73 | 33 | 5.2 | 13.0 | 0.00 | 0.82 | 0.00 | 85 | 1014.8 |
| 20260504150811 | 73 | 62 | 5.2 | 12.2 | 0.00 | 0.82 | 0.01 | 85 | 1015.2 |
| 20260504150311 | 73 | 43 | 4.3 | 12.2 | 0.00 | 0.82 | 0.01 | 85 | 1015.3 |
| 20260504141312 | 73 | 121 | 2.6 | 10.4 | 0.00 | 0.82 | 0.01 | 89 | 1015.1 |
| 20260504140811 | 73 | 66 | 3.5 | 8.7 | 0.00 | 0.82 | 0.01 | 89 | 1015.1 |
| 20260504140311 | 73 | 39 | 1.7 | 5.2 | 0.00 | 0.82 | 0.01 | 89 | 1015.2 |
| 20260504130812 | 73 | 70 | 5.2 | 10.4 | 0.00 | 0.82 | 0.01 | 87 | 1014.9 |
| 20260504130312 | 73 | 44 | 6.1 | 12.2 | 0.00 | 0.82 | 0.01 | 87 | 1014.9 |
| 20260504120311 | 73 | 34 | 5.2 | 14.8 | 0.00 | 0.82 | 0.01 | 88 | 1013.9 |
| 20260504110311 | 73 | 9 | 1.7 | 5.2 | 0.01 | 0.82 | 0.01 | 88 | 1014.2 |
| 20260504100311 | 74 | 29 | 1.7 | 4.3 | 0.00 | 0.81 | 0.00 | 88 | 1013.9 |
| 20260504081810 | 76 | 49 | 4.3 | 10.4 | 0.00 | 0.81 | 0.00 | 79 | 1013.9 |
| 20260504080811 | 77 | 11 | 3.5 | 7.8 | 0.00 | 0.81 | 0.00 | 78 | 1013.9 |
| 20260504080311 | 77 | 24 | 3.5 | 6.1 | 0.00 | 0.81 | 0.00 | 77 | 1014.0 |
| 20260504070310 | 78 | 47 | 4.3 | 10.4 | 0.01 | 0.81 | 0.81 | 74 | 1014.7 |